{"data":{"norad_id":37740,"intl_designator":"2011-033B","name":"GLOBALSTAR M088","alt_names":[],"object_type":"PAYLOAD","status":"ACTIVE","operator":null,"country":"GLOB","launch_date":"2011-07-13","launch_site_code":"TYMSC","launch_vehicle":null,"mission":null,"orbit_class":"UNKNOWN","rcs_meters":5.0376,"size_class":null,"mass_kg":null,"dimensions":null,"purposes":["comms"],"wikipedia_slug":null,"has_3d_model":false,"image_url":null,"decayed_at":null,"tle_current":{"epoch":"2026-05-25T00:12:36.437184Z","epoch_age_seconds":68164,"freshness":"FRESH","line1":"1 37740U 11033B   26145.00875506 -.00000082  00000+0  12288-3 0  9992","line2":"2 37740  52.0234 349.4809 0000887  90.1410  63.3525 12.62268163685565","mean_motion":12.62268163,"eccentricity":8.87e-5,"inclination_deg":52.0234,"raan_deg":349.4809,"arg_perigee_deg":90.141,"mean_anomaly_deg":63.3525,"bstar":0.00012288,"rev_number":68556,"period_min":114.0803548889,"perigee_km":1412.9053547114,"apogee_km":1414.287608231,"semimajor_km":7791.7334814712,"source":"CELESTRAK","updated_at":"2026-05-25T13:38:23.042233Z"}}}